Benson, MN

6:27 AM CDT on July 28, 2017 (GMT -0500)
Benson Municipal

Weather History for KBBB - February, 2013

Change the Weather History Date:

Saturday, February 16, 2013

  Actual Average Record
Temperature  
Mean Temperature 10 °F -  
Max Temperature 14 °F 24 °F 59 °F (1981)
Min Temperature 5 °F 6 °F -28 °F (1967)
Degree Days  
Heating Degree Days 56    
Moisture  
Dew Point 7 °F    
Average Humidity 88    
Maximum Humidity 92    
Minimum Humidity 85    
Precipitation  
Precipitation 0.00 in - - ()
Sea Level Pressure  
Sea Level Pressure 30.11 in    
Wind  
Wind Speed 5 mph (SSE)    
Max Wind Speed 14 mph    
Max Gust Speed 16 mph    
Visibility 10 miles    
Events Snow    
Averages and records for this station are not official NWS values.
T = Trace of Precipitation, MM = Missing Value Source: NWS Daily Summary

Daily Weather History Graph

Daily Weather History Graph

Search for Another Location

Airport or City:

Trip Planner

Search our weather history database for the weather conditions in past years. The results will help you decide how hot, cold, wet, or windy it might be!

Date:

Astronomy

Feb. 16, 2013 Rise Set
Actual Time 7:22 AM CST 5:51 PM CST
Civil Twilight 6:51 AM CST 6:22 PM CST
Nautical Twilight 6:17 AM CST 6:56 PM CST
Astronomical Twilight 5:43 AM CST 7:30 PM CST
Moon 10:14 AM CST (2/16) 12:12 AM CST (2/16)
Length of Visible Light 11h 30m
Length of Day
10h 29m
Waxing Crescent, 39% of the Moon is Illuminated
Feb 16
Waxing Crescent
Feb 17
First Quarter
Feb 25
Full
Mar 4
Last Quarter
Mar 11
New

Hourly Weather History & Observations

Time (CST) Temp. Windchill Dew Point Humidity Pressure Visibility Wind Dir Wind Speed Gust Speed Precip Events Conditions
12:13 AM 10.4 °F 4.0 °F 8.6 °F 92% 30.24 in 10.0 mi NNW 3.5 mph - N/A Snow Light Snow
12:32 AM 10.4 °F - 8.6 °F 92% 30.23 in 10.0 mi Calm Calm - N/A Snow Light Snow
12:53 AM 10.4 °F 2.2 °F 8.6 °F 92% 30.23 in 10.0 mi NW 4.6 mph - N/A Snow Light Snow
1:12 AM 8.6 °F 2.0 °F 6.8 °F 92% 30.23 in 10.0 mi WNW 3.5 mph - N/A Snow Light Snow
1:32 AM 6.8 °F -2.0 °F 5.0 °F 92% 30.22 in 10.0 mi NNW 4.6 mph - N/A Snow Light Snow
1:53 AM 5.0 °F -2.1 °F 3.2 °F 92% 30.22 in 10.0 mi NNW 3.5 mph - N/A   Overcast
2:12 AM 6.8 °F - 3.2 °F 85% 30.22 in 10.0 mi Calm Calm - N/A Snow Light Snow
2:32 AM 6.8 °F -2.0 °F 3.2 °F 85% 30.21 in 10.0 mi West 4.6 mph - N/A Snow Light Snow
2:53 AM 6.8 °F - 3.2 °F 85% 30.21 in 10.0 mi Calm Calm - N/A Snow Light Snow
3:12 AM 6.8 °F - 3.2 °F 85% 30.20 in 10.0 mi Calm Calm - N/A Snow Light Snow
3:32 AM 6.8 °F - 3.2 °F 85% 30.19 in 10.0 mi Calm Calm - N/A Snow Light Snow
3:53 AM 6.8 °F - 3.2 °F 85% 30.18 in 10.0 mi Calm Calm - N/A Snow Light Snow
4:12 AM 6.8 °F - 3.2 °F 85% 30.17 in 10.0 mi Calm Calm - N/A Snow Light Snow
4:53 AM 6.8 °F - 5.0 °F 92% 30.16 in 10.0 mi Calm Calm - N/A Snow Light Snow
5:12 AM 6.8 °F - 5.0 °F 92% 30.16 in 10.0 mi Calm Calm - N/A Snow Light Snow
5:32 AM 6.8 °F - 5.0 °F 92% 30.16 in 10.0 mi Calm Calm - N/A Snow Light Snow
5:53 AM 6.8 °F - 5.0 °F 92% 30.16 in 7.0 mi Calm Calm - N/A Snow Light Snow
6:12 AM 6.8 °F - 5.0 °F 92% 30.16 in 7.0 mi Calm Calm - N/A Snow Light Snow
6:53 AM 8.6 °F 2.0 °F 5.0 °F 85% 30.15 in 10.0 mi SSE 3.5 mph - N/A Snow Light Snow
7:12 AM 8.6 °F 2.0 °F 6.8 °F 92% 30.14 in 10.0 mi SSE 3.5 mph - N/A Snow Light Snow
7:33 AM 8.6 °F 0.1 °F 6.8 °F 92% 30.13 in 10.0 mi SE 4.6 mph - N/A Snow Light Snow
7:53 AM 8.6 °F -1.3 °F 6.8 °F 92% 30.14 in 10.0 mi SSE 5.8 mph - N/A Snow Light Snow
8:12 AM 8.6 °F -2.6 °F 6.8 °F 92% 30.14 in 7.0 mi SE 6.9 mph - N/A Snow Light Snow
8:33 AM 8.6 °F 0.1 °F 6.8 °F 92% 30.14 in 7.0 mi SSE 4.6 mph - N/A Snow Light Snow
8:52 AM 8.6 °F -2.6 °F 6.8 °F 92% 30.14 in 7.0 mi South 6.9 mph - N/A Snow Light Snow
9:12 AM 8.6 °F -2.6 °F 6.8 °F 92% 30.13 in 7.0 mi SSE 6.9 mph - N/A Snow Light Snow
9:32 AM 10.4 °F -0.4 °F 8.6 °F 92% 30.13 in 7.0 mi SSE 6.9 mph - N/A Snow Light Snow
9:52 AM 10.4 °F -0.4 °F 8.6 °F 92% 30.13 in 7.0 mi SSE 6.9 mph - N/A Snow Light Snow
10:13 AM 10.4 °F 0.8 °F 8.6 °F 92% 30.13 in 7.0 mi SSE 5.8 mph - N/A Snow Light Snow
10:32 AM 10.4 °F -1.5 °F 8.6 °F 92% 30.12 in 7.0 mi SSE 8.1 mph - N/A Snow Light Snow
10:52 AM 12.2 °F -1.8 °F 8.6 °F 85% 30.12 in 10.0 mi SE 11.5 mph - N/A Snow Light Snow
11:13 AM 12.2 °F -1.0 °F 8.6 °F 85% 30.12 in 10.0 mi SSE 10.4 mph 16.1 mph N/A Snow Light Snow
11:32 AM 12.2 °F -1.0 °F 8.6 °F 85% 30.12 in 10.0 mi South 10.4 mph - N/A   Scattered Clouds
11:52 AM 12.2 °F -0.2 °F 8.6 °F 85% 30.12 in 10.0 mi South 9.2 mph 16.1 mph N/A   Scattered Clouds
12:13 PM 12.2 °F -0.2 °F 8.6 °F 85% 30.11 in 10.0 mi South 9.2 mph - N/A   Scattered Clouds
12:32 PM 12.2 °F -2.5 °F 8.6 °F 85% 30.10 in 10.0 mi SSE 12.7 mph - N/A   Mostly Cloudy
12:52 PM 12.2 °F -3.1 °F 8.6 °F 85% 30.10 in 10.0 mi South 13.8 mph - N/A   Mostly Cloudy
1:13 PM 12.2 °F -2.5 °F 8.6 °F 85% 30.10 in 10.0 mi South 12.7 mph - N/A   Overcast
1:32 PM 12.2 °F -2.5 °F 8.6 °F 85% 30.09 in 10.0 mi South 12.7 mph - N/A   Overcast
1:52 PM 12.2 °F -1.0 °F 8.6 °F 85% 30.09 in 10.0 mi South 10.4 mph - N/A   Overcast
2:12 PM 12.2 °F -3.1 °F 8.6 °F 85% 30.08 in 10.0 mi South 13.8 mph - N/A   Overcast
2:32 PM 12.2 °F -3.1 °F 8.6 °F 85% 30.08 in 10.0 mi South 13.8 mph - N/A   Overcast
2:53 PM 12.2 °F -1.0 °F 8.6 °F 85% 30.07 in 10.0 mi SSE 10.4 mph - N/A   Overcast
3:12 PM 12.2 °F -1.0 °F 8.6 °F 85% 30.08 in 10.0 mi SSE 10.4 mph - N/A   Overcast
3:33 PM 12.2 °F -2.5 °F 8.6 °F 85% 30.07 in 10.0 mi South 12.7 mph - N/A   Overcast
3:53 PM 12.2 °F -1.0 °F 8.6 °F 85% 30.08 in 10.0 mi SSE 10.4 mph - N/A   Overcast
4:12 PM 12.2 °F -0.2 °F 8.6 °F 85% 30.08 in 10.0 mi SSE 9.2 mph - N/A   Overcast
4:33 PM 14.0 °F 2.9 °F 10.4 °F 86% 30.08 in 10.0 mi SSE 8.1 mph - N/A   Overcast
4:52 PM 12.2 °F -0.2 °F 10.4 °F 92% 30.08 in 10.0 mi SSE 9.2 mph - N/A Snow Light Snow
5:12 PM 12.2 °F 0.7 °F 8.6 °F 85% 30.08 in 10.0 mi SE 8.1 mph - N/A Snow Light Snow
5:33 PM 12.2 °F -1.0 °F 8.6 °F 85% 30.07 in 10.0 mi SE 10.4 mph - N/A Snow Light Snow
5:52 PM 12.2 °F 0.7 °F 8.6 °F 85% 30.07 in 10.0 mi SE 8.1 mph - N/A Snow Light Snow
6:12 PM 12.2 °F -2.5 °F 10.4 °F 92% 30.06 in 10.0 mi SSE 12.7 mph 16.1 mph N/A   Overcast
6:33 PM 12.2 °F 0.7 °F 8.6 °F 85% 30.07 in 10.0 mi SE 8.1 mph - N/A   Overcast
6:52 PM 12.2 °F -0.2 °F 8.6 °F 85% 30.07 in 10.0 mi SSE 9.2 mph - N/A   Overcast
7:12 PM 12.2 °F 0.7 °F 8.6 °F 85% 30.06 in 10.0 mi SE 8.1 mph - N/A   Scattered Clouds
7:33 PM 12.2 °F 2.9 °F 8.6 °F 85% 30.06 in 10.0 mi SE 5.8 mph - N/A   Clear
7:52 PM 10.4 °F -0.4 °F 8.6 °F 92% 30.06 in 10.0 mi SE 6.9 mph - N/A   Clear
8:12 PM 10.4 °F -0.4 °F 8.6 °F 92% 30.06 in 10.0 mi SE 6.9 mph - N/A   Scattered Clouds
8:33 PM 10.4 °F -0.4 °F 8.6 °F 92% 30.05 in 10.0 mi SE 6.9 mph - N/A   Overcast
8:52 PM 10.4 °F -0.4 °F 8.6 °F 92% 30.05 in 10.0 mi SE 6.9 mph - N/A   Overcast
9:13 PM 12.2 °F -1.0 °F 8.6 °F 85% 30.04 in 10.0 mi SE 10.4 mph - N/A   Overcast
9:33 PM 12.2 °F -0.2 °F 8.6 °F 85% 30.04 in 10.0 mi SSE 9.2 mph - N/A   Overcast
9:52 PM 12.2 °F 0.7 °F 8.6 °F 85% 30.04 in 10.0 mi SE 8.1 mph - N/A   Overcast
10:13 PM 12.2 °F -1.0 °F 8.6 °F 85% 30.03 in 10.0 mi South 10.4 mph - N/A   Overcast
10:32 PM 12.2 °F -0.2 °F 8.6 °F 85% 30.04 in 10.0 mi South 9.2 mph - N/A   Overcast
10:52 PM 12.2 °F -1.0 °F 8.6 °F 85% 30.04 in 10.0 mi South 10.4 mph - N/A   Overcast
11:13 PM 12.2 °F -2.5 °F 8.6 °F 85% 30.03 in 10.0 mi South 12.7 mph - N/A   Overcast
11:32 PM 12.2 °F -2.5 °F 8.6 °F 85% 30.02 in 10.0 mi South 12.7 mph 16.1 mph N/A   Overcast
11:52 PM 10.4 °F -4.1 °F 6.8 °F 85% 30.01 in 10.0 mi South 11.5 mph - N/A   Overcast